Regional Weather Roundup
Issued by NWS

Home | Current Version | Previous Version | Text Only | Print | Product List | Glossary On
Versions: 1 2 3 4 5 6 7 8 9 10 11 12 13 14 15 16 17 18 19 20 21 22 23 24 25 26 27 28
000
ASUS43 KMPX 140410
RWRMN
WEATHER ROUNDUP FOR MINNESOTA
NATIONAL WEATHER SERVICE TWIN CITIES/CHANHASSEN MN
1100 PM CDT THU MAY 13 2021


NOTE: "FAIR" INDICATES FEW OR NO CLOUDS BELOW 12,000 FEET WITH NO
SIGNIFICANT WEATHER AND/OR OBSTRUCTIONS TO VISIBILITY. N/A MEANS
CURRENT SKY AND/OR WEATHER CONDITIONS ARE NOT AVAILABLE.

MNZ060>063-068>070-140500-
   Twin Cities Metro

CITY           SKY/WX    TMP DP  RH WIND       PRES   REMARKS
TWIN CITIES    CLEAR     59  26  28 S8        30.21R
ST PAUL        CLEAR     55  33  43 S8        30.22R
CRYSTAL        CLEAR     57  27  31 S7        30.19S
BLAINE         CLEAR     59  27  29 SE7       30.20S
LAKEVILLE      CLEAR     54  23  30 S5        30.22S
EDEN PRAIRIE   CLEAR     57  28  33 SW6       30.20R
SOUTH ST PAUL  CLEAR     57  28  32 SE5       30.21S
LAKE ELMO      FAIR      54  30  40 SE6       30.23S
$$
MNZ001>005-007-008-013>017-022>024-027-028-140500-
   Northwest Minnesota

CITY           SKY/WX    TMP DP  RH WIND       PRES   REMARKS
BEMIDJI        MOCLDY    51  38  60 S5        30.14S
HALLOCK        MOCLDY    57  39  51 W5        30.08S
ROSEAU           N/A     59 N/A N/A S7        30.10S
WARROAD        PTCLDY    55  39  54 S6        30.11S
THIEF RVR FALL PTCLDY    55  38  52 S6        30.12S
CROOKSTON      PTCLDY    55  37  50 CALM      30.10S
FOSSTON        PTCLDY    50  36  57 SE5       30.13S
DETROIT LAKES  MOCLDY    57  37  47 S6        30.13S
MOORHEAD       MOCLDY    59  36  41 SE8       30.10S
PARK RAPIDS    MOCLDY    57  35  43 S6        30.14S
MAHNOMEN       MOCLDY    55  39  55 SE6       30.12R
$$
MNZ006-009>011-018-025>026-140500-
   North Central Minnesota

CITY           SKY/WX    TMP DP  RH WIND       PRES   REMARKS
BAUDETTE       PTCLDY    53  37  54 S3        30.12S
FLAG ISLAND    PTCLDY    55  39  54 SW5       30.09R
INTL FALLS     CLEAR     46  35  65 CALM      30.13S
WASKISH        PTCLDY    57  37  47 S6        30.13S
BIG FORK       CLOUDY    54  37  54 CALM      30.20S
LONGVILLE      PTCLDY    46  39  76 CALM      30.15S
GRAND RAPIDS   MOCLDY    54  33  45 S6        30.18S
CRANE LAKE     PTCLDY    41  30  65 CALM      30.18S
ORR            PTCLDY    54  27  35 CALM      30.15S
COOK           PTCLDY    48  32  53 CALM      30.17S
WALKER         MOCLDY    51  37  58 CALM      30.15S
$$
MNZ012-019>021-037-140500-
   Northeast Minnesota

CITY           SKY/WX    TMP DP  RH WIND       PRES   REMARKS
DULUTH         PTCLDY    54  27  35 S8        30.19F
ELY            PTCLDY    54  25  32 S5        30.17F
HIBBING        MOCLDY    48  29  47 CALM      30.17S
EVELETH        CLOUDY    46  32  58 CALM      30.19S
DULUTH HARBOR  CLEAR     57  34  41 SW5       30.19S
TWO HARBORS    CLEAR     46  30  53 CALM      30.19S
SILVER BAY       N/A     39  27  60 CALM      30.19F
GRAND MARAIS     N/A     43  31  62 CALM      30.19S
G MARAIS ARPRT CLEAR     52  18  25 CALM      30.20S
$$
MNZ029>031-032-039>041-046>048-054>057-064-140500-
   West Central Minnesota

CITY           SKY/WX    TMP DP  RH WIND       PRES   REMARKS
FERGUS FALLS   MOCLDY    55  39  54 S8        30.09S
WHEATON        PTCLDY    55  30  38 SE12      30.12F
MORRIS         PTCLDY    54  28  37 SE9       30.14F
ALEXANDRIA     PTCLDY    54  37  52 SE6       30.16F
ELBOW LAKE     FAIR      55  36  48 SE7       30.14S
WADENA         MOCLDY    55  39  54 S3        30.15S
GLENWOOD       PTCLDY    54  37  54 SE6       30.16F
APPLETON       PTCLDY    57  30  35 SE7       30.13F
BENSON         PTCLDY    55  36  47 S6        30.16S
ORTONVILLE       N/A     54  34  47 SE9       30.11F
MADISON        PTCLDY    55  32  41 SE9       30.14F
WILLMAR        FAIR      55  34  44 SE6       30.20S
$$
MNZ033>034-036-042>043-049>051-058-059-140500-
   Central Minnesota

CITY           SKY/WX    TMP DP  RH WIND       PRES   REMARKS
ST CLOUD       PTCLDY    56  33  42 S5        30.18S
SAUK CENTRE    CLOUDY    53  36  52 SE5       30.17S
PAYNESVILLE    CLOUDY    54  39  58 CALM      30.18S
AITKIN         PTCLDY    54  30  40 CALM      30.17S
PINE RIVER     MOCLDY    48  36  61 CALM      30.18S
BRAINERD       PTCLDY    55  29  36 SE5       30.17R
STAPLES        MOCLDY    57  34  41 S3        30.16S
LONG PRAIRIE   FAIR      52  36  54 SE3       30.17S
LITTLE FALLS   PTCLDY    52  27  37 SE3       30.18S
CAMP RIPLEY    MOCLDY    54  31  42 S5        30.18R
LITCHFIELD     PTCLDY    55  37  50 SE5       30.19S
BUFFALO        CLEAR     50  27  41 MISG      30.21S
MAPLE LAKE     PTCLDY    49  38  66 CALM      30.20F
HUTCHINSON     MOCLDY    50  33  51 CALM      30.20S
$$
MNZ037-044-045-052-053-140500-
   East Central Minnesota

CITY           SKY/WX    TMP DP  RH WIND       PRES   REMARKS
PRINCETON      CLEAR     59  27  29 S8        30.19S
MORA           CLEAR     54  30  40 SE3       30.21S
CAMBRIDGE      CLEAR     57  36  44 SE5       30.20S
RUSH CITY      MOCLDY    55  29  36 S7        30.20F
MOOSE LAKE     CLEAR     46  32  57 CALM      30.18S
HINCKLEY       CLEAR     46  34  61 CALM      30.19F
CLOQUET        CLEAR     54  23  30 CALM      30.18S
$$
MNZ071>073-080-081-089-090-097-098-140500-
   Southwest Minnesota

CITY           SKY/WX    TMP DP  RH WIND       PRES   REMARKS
MONTEVIDEO     PTCLDY    57  27  30 S7        30.15S
GRANITE FALLS  PTCLDY    57  31  36 SE12      30.17S
CANBY          MOCLDY    55  33  43 E10       30.14F
MARSHALL       MOCLDY    54  32  43 S9        30.15S
REDWOOD FALLS  CLOUDY    59  31  34 SE10      30.17R
OLIVIA         PTCLDY    59  28  31 SE7       30.17R
PIPESTONE      MOCLDY    55  34  44 S10       30.15S
WINDOM         PTCLDY    55  27  33 SE9       30.19R
WORTHINGTON    PTCLDY    56  31  38 S10       30.19R
JACKSON        PTCLDY    54  27  35 S9        30.22R
TRACY          PTCLDY    55  26  32 S7        30.16S
SLAYTON        PTCLDY    50  28  42 S9        30.19R
$$
MNZ065>067-074>077-082>085-091>093-140500-
   South Central Minnesota

CITY           SKY/WX    TMP DP  RH WIND       PRES   REMARKS
MANKATO        PTCLDY    55  27  34 SE9       30.22R
NEW ULM        CLOUDY    57  30  35 SE6       30.19S
ST JAMES       CLOUDY    57  27  30 SE8       30.20R
FAIRMONT       PTCLDY    52  24  33 S8        30.22R
GLENCOE        CLOUDY    53  31  42 E3        30.19F
FARIBAULT      CLEAR     55  28  35 SE8       30.23R
OWATONNA       CLEAR     55  28  35 SE9       30.23S
WASECA         CLEAR     54  27  35 SE10      30.24S
ALBERT LEA     CLEAR     55  30  38 S8        30.24S
$$
MNZ078>079-086>088-094>096-140500-
   Southeast Minnesota

CITY           SKY/WX    TMP DP  RH WIND       PRES   REMARKS
ROCHESTER      CLEAR     50  28  42 S8        30.27S
RED WING       CLEAR     61  25  25 S9        30.22S
STANTON        CLEAR     58  28  31 S9        30.21S
DODGE CENTER   CLEAR     52  25  35 S9        30.25S
WINONA         CLEAR     48  39  71 CALM      30.27S
AUSTIN         CLEAR     54  30  40 SE6       30.25F
PRESTON        CLEAR     52  28  39 CALM      30.28S
$$
ABBREVIATIONS USED IN REMARKS
   TC - TEMPERATURES IN CELSIUS
  WCI - WIND CHILL INDEX
   HX - HEAT INDEX
  VSB - VISIBILITY
$$



USA.gov is the U.S. government's official web portal to all federal, state and local government web resources and services.